Wind_Speed
35 34 32 30 28 27 28 27 25 24 23 22 21 20 18 17 16 15 13 13 12 11 10 10 9 9 8 8 8 7 7 6 6 6 6 6 6 5 5 5 5 4 4
39 37 36 34 31 29 28 28 27 26 25 25 25 24 22 21 19 18 17 16 14 13 12 11 11 10 9 9 8 8 7 6 6 6 6 6 6 5 5 5 5 5 4
41 41 40 38 36 33 31 31 29 29 28 27 27 27 26 25 24 22 21 19 18 16 15 14 13 12 11 10 9 9 8 7 7 7 6 6 6 6 5 5 5 5 5
40 41 42 41 40 38 36 34 32 30 30 29 30 29 29 29 28 26 25 23 22 20 18 17 16 15 13 12 11 10 10 9 8 8 7 7 7 6 6 6 6 6 6
38 40 41 42 43 42 40 38 35 33 31 31 31 30 29 31 31 30 29 27 25 24 22 21 19 18 16 15 14 13 12 11 10 10 9 9 8 8 8 8 7 7 7
36 38 40 42 43 43 42 40 38 36 35 33 32 32 31 30 32 33 33 31 29 28 26 25 23 22 20 18 17 16 15 14 13 12 11 11 10 10 9 9 9 9 9
33 35 38 40 42 43 42 42 41 40 39 37 36 34 33 32 33 34 35 34 33 32 30 29 27 26 24 22 21 19 18 17 16 15 14 13 12 12 11 11 11 11 11
29 32 34 37 39 41 42 42 42 42 42 40 39 38 37 34 33 34 36 37 37 36 34 33 31 30 28 26 24 23 22 20 19 18 17 16 15 15 14 13 13 13 13
26 29 32 34 37 39 40 41 41 42 42 42 41 40 39 37 35 36 35 38 38 38 37 36 35 34 32 30 28 26 25 24 23 22 21 20 19 18 17 16 15 15 15
21 24 28 31 34 37 39 40 41 41 42 42 42 42 42 40 39 37 37 37 39 39 40 39 37 36 35 33 31 29 28 26 25 25 24 22 21 20 20 19 18 17 17
16 19 23 27 30 33 37 39 40 41 42 42 42 43 45 45 43 41 40 39 39 39 41 41 41 39 38 36 35 33 31 29 27 26 26 25 24 23 22 21 21 20 19
13 15 17 22 25 29 32 36 38 40 41 42 42 43 44 45 45 45 43 41 40 39 40 42 42 41 40 39 37 35 33 31 30 28 27 26 25 24 24 23 23 22 21
11 12 14 17 20 24 28 32 35 38 40 41 43 44 45 45 45 46 46 44 42 42 41 41 41 43 42 41 39 37 36 34 32 30 28 27 27 26 25 25 24 23 23
11 11 12 14 16 20 23 28 32 35 38 40 42 44 45 46 46 46 46 45 44 43 42 41 41 41 42 42 40 39 38 36 34 33 31 29 28 27 27 26 25 24 23
13 12 12 13 15 17 20 23 27 32 36 39 41 43 44 46 47 47 48 47 46 45 44 43 43 42 43 43 42 41 40 38 37 35 33 31 30 29 28 27 26 26 25
15 14 14 14 15 16 18 20 23 27 30 35 38 41 43 45 47 48 49 50 49 47 46 45 46 44 43 42 42 42 41 40 38 36 34 33 31 30 30 29 28 27 26
17 16 16 16 17 18 19 20 22 24 27 30 33 37 40 43 46 48 49 50 50 49 48 46 47 46 46 45 44 43 42 41 41 38 36 35 33 32 31 31 29 28 28
20 19 19 18 19 19 20 20 22 24 25 28 30 33 35 39 42 45 47 49 50 49 48 48 48 47 46 46 46 44 43 42 41 39 38 37 36 34 33 32 31 30 29
22 21 21 20 20 21 21 21 22 23 25 26 28 30 32 35 38 41 44 46 49 50 49 48 49 48 48 47 47 45 43 42 42 41 40 39 38 37 35 35 34 33 32
24 24 22 22 22 22 22 22 22 22 23 24 26 29 31 32 35 37 40 43 45 47 49 49 48 48 48 48 47 46 44 42 42 43 42 41 39 39 37 36 36 35 34
26 25 24 23 23 23 22 22 22 22 22 23 24 26 28 30 32 34 37 40 42 45 46 47 48 48 48 48 47 47 46 44 44 43 43 43 42 41 40 39 37 36 34
27 27 26 25 24 24 23 22 22 21 21 22 23 25 26 28 29 30 33 36 39 42 43 44 45 46 46 46 47 47 46 46 44 43 42 42 43 43 42 41 39 37 34
28 29 28 26 26 25 24 23 22 20 19 19 20 22 24 24 26 27 29 31 34 37 41 42 43 43 44 44 46 46 46 45 44 44 43 43 43 43 42 41 40 37 35
29 29 29 28 28 27 26 25 22 19 17 16 16 17 19 21 23 24 25 26 29 32 35 38 39 40 42 43 43 43 44 45 45 44 44 44 44 43 41 40 38 36 34
29 29 30 30 29 29 28 25 22 19 15 13 11 12 14 16 18 19 19 21 23 26 29 32 34 35 37 38 40 42 42 43 43 42 42 41 41 41 40 39 37 35 32
28 29 30 30 30 30 29 27 23 19 15 11 8 7 9 11 13 14 16 17 20 22 24 26 29 31 32 34 36 37 39 40 40 41 40 40 39 39 38 37 36 34 32
Wind_Direction
258 256 254 253 251 245 241 239 238 238 237 236 234 231 227 222 217 212 208 205 201 197 194 190 186 181 177 175 174 172 173 174 173 176 178 180 183 184 188 191 198 210 223
257 256 254 254 253 249 243 240 239 239 238 237 235 233 230 227 223 219 215 213 210 207 203 200 196 192 188 186 185 185 184 184 187 190 190 190 190 188 191 198 208 218 229
256 255 254 253 252 251 246 244 241 241 241 239 235 233 232 230 227 224 221 218 216 214 211 209 205 202 199 197 197 198 199 200 201 201 201 200 198 200 206 214 222 228 238
255 254 252 252 251 250 249 247 244 244 244 242 239 235 233 232 229 227 224 223 221 219 218 216 214 212 210 209 208 210 211 212 214 215 216 215 214 216 221 227 233 239 247
254 253 251 250 250 250 249 248 246 247 246 245 242 236 235 233 231 229 227 226 225 224 223 222 221 220 219 217 218 219 220 220 221 223 225 227 228 230 234 238 242 248 254
253 252 250 248 248 249 248 248 247 248 247 246 245 243 239 236 233 231 230 229 228 228 227 226 226 225 224 224 224 225 227 228 229 230 233 235 237 239 241 244 249 255 260
253 251 250 249 248 247 247 247 246 247 247 247 247 247 245 242 236 233 232 231 231 230 229 229 230 229 229 229 229 230 231 233 235 236 238 240 241 243 246 250 254 258 264
254 251 249 248 248 247 246 246 246 246 245 246 246 246 245 245 241 237 235 233 233 231 231 232 231 231 231 231 232 233 234 236 238 239 241 243 245 247 249 253 257 260 265
256 252 249 248 248 248 247 247 246 246 245 245 244 244 245 245 244 241 238 236 234 233 233 233 233 233 233 233 233 234 236 237 239 241 243 245 247 250 252 255 258 262 266
262 255 250 249 248 248 248 248 248 247 245 244 243 242 243 243 243 242 240 239 236 234 234 234 235 235 235 235 235 236 237 238 241 242 244 246 248 250 253 256 258 261 265
270 262 255 251 249 248 247 247 247 247 246 245 244 243 242 242 242 242 242 242 239 236 235 236 235 236 236 236 237 237 238 239 241 242 245 246 248 250 253 255 258 261 264
285 273 263 256 253 251 249 247 247 247 246 246 245 243 243 242 242 243 243 243 240 239 238 237 237 237 237 236 236 237 238 239 240 242 244 246 247 249 251 253 256 259 262
307 292 276 267 260 255 252 249 247 247 247 246 246 244 244 243 242 242 243 243 242 241 240 239 238 238 237 236 236 237 238 239 239 241 244 245 246 248 250 253 255 257 260
328 313 296 284 273 264 257 252 249 248 247 247 246 246 246 244 243 242 242 241 240 240 240 239 238 238 238 236 236 236 237 238 239 241 243 245 246 248 249 251 254 256 258
337 327 314 300 289 278 268 260 255 252 250 248 247 246 245 244 243 242 241 241 241 240 239 239 240 240 239 236 234 235 236 238 239 240 242 244 245 246 247 250 253 255 257
344 336 327 315 302 291 281 271 264 259 254 251 248 246 245 244 242 241 241 241 241 240 238 239 240 240 237 234 233 234 236 237 237 239 241 243 244 246 247 249 252 253 254
347 339 330 322 313 304 295 284 274 267 260 255 251 248 246 245 243 242 241 240 240 241 240 238 238 238 236 235 234 235 236 236 237 238 241 242 243 246 246 248 250 251 253
349 342 334 326 318 311 303 294 284 274 266 259 254 250 247 245 243 242 241 240 240 240 240 239 238 237 236 236 235 236 236 236 236 237 239 240 243 244 246 246 249 251 254
351 345 338 332 326 318 310 301 292 282 271 262 257 252 248 246 244 242 241 240 240 240 239 239 238 237 237 237 235 234 235 236 236 237 238 240 243 244 243 245 247 251 253
354 349 343 336 330 324 317 309 299 289 278 268 260 254 250 247 245 242 240 239 239 239 239 239 238 237 236 236 235 234 235 236 238 238 239 241 241 242 242 245 248 249 251
356 352 348 342 337 330 323 316 307 296 284 272 264 257 252 248 246 243 240 238 237 238 238 238 238 237 236 237 236 236 236 236 236 238 239 239 239 242 243 246 246 247 249
359 356 351 347 343 338 331 324 315 304 290 277 267 260 254 249 246 244 242 238 236 235 235 236 236 237 236 237 236 236 234 235 236 236 237 238 239 239 240 242 242 244 246
359 358 356 352 349 345 340 333 326 314 300 285 271 262 255 248 244 242 241 238 236 234 233 234 234 236 235 235 235 235 234 232 233 234 235 236 237 237 238 239 239 241 243
358 358 358 356 354 351 348 342 335 327 314 298 281 265 255 247 242 238 237 236 234 232 232 232 233 234 235 235 234 233 231 230 231 233 234 235 236 236 236 238 240 241 242
358 358 359 359 358 358 356 353 348 342 333 316 296 273 258 247 239 234 231 230 229 228 228 228 228 230 232 232 231 229 228 227 227 230 230 231 232 232 233 236 237 238 238
356 358 359 0 1 2 2 3 2 359 353 342 322 289 262 245 236 231 229 229 227 227 225 223 223 224 226 228 227 227 226 225 226 226 227 228 229 230 233 235 235 236 238
Height
5861 5862 5864 5865 5866 5867 5869 5871 5873 5876 5878 5879 5881 5883 5885 5887 5888 5889 5890 5892 5893 5894 5895 5896 5897 5898 5899 5900 5901 5902 5903 5903 5904 5905 5905 5906 5907 5907 5908 5909 5910 5910 5910
5853 5855 5857 5859 5860 5861 5863 5865 5868 5870 5872 5874 5876 5879 5881 5883 5885 5886 5888 5890 5891 5892 5894 5895 5896 5897 5898 5899 5901 5902 5903 5903 5904 5905 5905 5906 5907 5907 5908 5908 5909 5909 5910
5844 5847 5849 5852 5853 5855 5857 5859 5862 5864 5866 5868 5870 5873 5876 5879 5881 5883 5885 5887 5888 5890 5892 5893 5895 5896 5897 5898 5900 5901 5902 5903 5904 5904 5905 5906 5906 5907 5907 5908 5908 5909 5909
5835 5838 5841 5843 5846 5848 5851 5853 5856 5858 5860 5862 5864 5867 5870 5873 5876 5879 5881 5883 5885 5887 5889 5891 5892 5894 5896 5897 5898 5900 5901 5902 5903 5904 5904 5905 5906 5906 5907 5907 5908 5908 5908
5827 5829 5832 5835 5837 5840 5843 5846 5849 5852 5854 5856 5858 5860 5863 5866 5870 5873 5876 5878 5881 5883 5885 5887 5889 5891 5893 5895 5896 5898 5899 5900 5901 5902 5903 5904 5905 5905 5906 5906 5906 5907 5907
5818 5820 5823 5826 5828 5831 5835 5838 5841 5844 5847 5849 5851 5854 5857 5860 5863 5866 5870 5873 5876 5878 5881 5883 5885 5888 5890 5892 5893 5895 5897 5898 5899 5901 5901 5902 5903 5904 5904 5904 5905 5905 5905
5810 5812 5814 5817 5820 5823 5826 5830 5833 5836 5839 5842 5845 5848 5850 5853 5856 5860 5863 5866 5870 5873 5875 5878 5881 5883 5885 5887 5890 5891 5893 5895 5897 5898 5899 5900 5901 5902 5902 5903 5903 5903 5903
5803 5804 5806 5809 5811 5814 5817 5821 5824 5828 5831 5834 5838 5840 5843 5846 5849 5852 5855 5859 5862 5866 5869 5872 5875 5878 5880 5883 5885 5887 5889 5891 5893 5894 5896 5897 5898 5899 5899 5900 5900 5901 5901
5796 5797 5799 5801 5803 5806 5809 5812 5815 5819 5823 5826 5829 5833 5836 5839 5841 5844 5847 5851 5854 5858 5862 5865 5868 5871 5874 5877 5880 5882 5884 5887 5889 5890 5892 5893 5894 5895 5896 5897 5897 5898 5898
5790 5791 5792 5794 5796 5798 5801 5804 5807 5810 5814 5817 5820 5824 5828 5830 5833 5836 5839 5843 5846 5850 5854 5857 5861 5864 5867 5871 5874 5876 5879 5881 5884 5886 5887 5889 5890 5891 5892 5893 5894 5894 5894
5785 5785 5786 5787 5789 5791 5793 5795 5798 5801 5805 5808 5811 5815 5818 5821 5825 5828 5831 5835 5838 5842 5845 5849 5853 5856 5860 5864 5867 5870 5873 5875 5878 5880 5882 5884 5885 5887 5888 5889 5890 5890 5890
5782 5781 5781 5782 5783 5784 5785 5787 5790 5793 5796 5799 5802 5805 5808 5812 5816 5819 5823 5826 5829 5833 5836 5840 5844 5848 5852 5856 5860 5863 5866 5869 5872 5874 5876 5878 5880 5881 5883 5884 5885 5885 5886
5779 5778 5777 5777 5777 5778 5779 5780 5782 5784 5786 5789 5792 5795 5799 5802 5806 5809 5813 5816 5820 5824 5827 5831 5835 5839 5843 5847 5852 5855 5859 5862 5865 5868 5870 5872 5874 5876 5877 5879 5880 5880 5881
5777 5776 5774 5773 5772 5772 5772 5773 5774 5776 5778 5780 5782 5785 5788 5792 5796 5799 5803 5806 5810 5814 5818 5823 5826 5830 5834 5838 5843 5847 5850 5854 5858 5861 5863 5866 5868 5870 5872 5873 5874 5875 5876
5776 5773 5771 5770 5769 5768 5767 5767 5767 5768 5769 5770 5772 5775 5778 5781 5785 5788 5792 5796 5801 5805 5809 5813 5817 5821 5825 5829 5834 5837 5842 5846 5850 5853 5856 5859 5861 5863 5865 5867 5868 5869 5870
5774 5772 5769 5767 5765 5763 5762 5761 5760 5760 5760 5761 5762 5764 5767 5770 5773 5777 5781 5785 5789 5794 5798 5803 5807 5811 5815 5820 5825 5828 5833 5838 5841 5845 5848 5851 5854 5856 5859 5860 5862 5863 5864
5773 5770 5767 5764 5761 5758 5756 5755 5753 5752 5752 5752 5753 5754 5756 5759 5762 5766 5770 5774 5778 5782 5787 5792 5796 5801 5805 5810 5815 5819 5824 5828 5833 5837 5840 5844 5846 5849 5851 5853 5855 5857 5858
5772 5767 5764 5760 5757 5754 5751 5748 5746 5745 5744 5743 5744 5745 5746 5748 5751 5755 5758 5763 5767 5771 5776 5781 5785 5790 5795 5800 5805 5810 5815 5819 5824 5828 5832 5835 5838 5841 5843 5846 5848 5849 5851
5770 5765 5761 5756 5752 5749 5745 5742 5739 5737 5735 5735 5735 5735 5737 5738 5741 5744 5747 5751 5756 5760 5765 5770 5775 5779 5785 5790 5795 5800 5805 5810 5814 5819 5823 5826 5830 5833 5835 5838 5840 5842 5843
5768 5763 5758 5753 5748 5744 5739 5735 5732 5729 5727 5726 5726 5726 5727 5729 5731 5733 5737 5740 5744 5749 5753 5759 5764 5769 5775 5780 5785 5791 5796 5801 5805 5810 5814 5818 5821 5824 5827 5830 5832 5834 5836
5767 5761 5755 5749 5744 5739 5734 5729 5725 5721 5719 5717 5717 5717 5718 5720 5721 5724 5726 5730 5734 5738 5743 5748 5753 5759 5764 5769 5775 5781 5786 5791 5795 5800 5804 5808 5812 5815 5818 5821 5823 5825 5827
5765 5759 5753 5747 5741 5735 5729 5724 5719 5714 5711 5709 5708 5709 5709 5711 5712 5715 5717 5720 5724 5728 5733 5738 5743 5749 5754 5760 5765 5770 5776 5781 5786 5791 5795 5798 5802 5806 5809 5812 5814 5817 5819
5764 5758 5751 5744 5738 5731 5725 5719 5713 5708 5704 5701 5700 5700 5700 5702 5704 5706 5709 5711 5715 5719 5724 5729 5734 5739 5744 5750 5756 5761 5766 5771 5777 5782 5785 5789 5792 5796 5800 5802 5805 5808 5810
5763 5757 5750 5743 5736 5729 5721 5714 5708 5703 5698 5695 5693 5693 5693 5695 5697 5699 5701 5704 5707 5711 5716 5721 5726 5730 5734 5739 5745 5751 5755 5760 5765 5770 5775 5779 5783 5787 5790 5793 5796 5799 5802
5762 5755 5749 5742 5734 5727 5719 5711 5704 5699 5695 5691 5689 5688 5688 5689 5691 5693 5696 5698 5701 5704 5708 5712 5717 5721 5726 5731 5736 5741 5746 5751 5755 5760 5765 5769 5773 5777 5780 5784 5787 5791 5793
5761 5755 5748 5741 5733 5726 5718 5710 5703 5698 5693 5690 5688 5686 5686 5687 5688 5690 5692 5694 5696 5699 5702 5706 5710 5714 5718 5723 5728 5733 5737 5742 5746 5751 5756 5761 5764 5768 5772 5776 5779 5783 5785